Вернуться в каталог

STARLINK-35524

АктивенСвязьVLEO
NORAD 65914·PAYLOAD·🇺🇸 United States

Запущен Oct 8, 2025 с Vandenberg Space Force Base

Loading…

Ближайшие Пролёты (ближайшие 24 часа)

TLE

СвежийSource: CelesTrak SupGP

Эпоха: Sep 14, 2026, 14:23 UTC

1 65914C 25225E   26257.59979167 -.00062968  00000+0 -18611-2 0  2574
2 65914  53.1601   5.3452 0001310  82.2496 200.4749 15.34410702    12

Отслеживайте STARLINK-35524 в реальном времени с AllMySat

Download on the App Store